User: anonymous   Login
Location: Brotuna
(46.2000°N, 22.6000°E)
Time: 17:48:37
(UTC+00:00)
Language:

STARLINK-1105 - Orbit

View from above orbital plane
View from above orbital plane
View from above satellite
View from above satellite

Ground track
Ground track

The orbit data is extracted from the following two-line orbital elements,

1 45218U 20012AS  20185.50001157 -.00027802  00000-0 -18955-2 0  9991
2 45218  53.0014 322.4939 0001813 102.5876  59.9841 15.05597335 21696
Epoch (UTC): 03 July 2020 12:00:01
Eccentricity: 0.0001813
inclination: 53.0014°
perigee height: 548 km
apogee height: 551 km
right ascension of ascending node: 322.4939°
argument of perigee: 102.5876°
revolutions per day: 15.05597335
mean anomaly at epoch: 59.9841°
orbit number at epoch: 2169

The dashed part of the orbit path shows where the satellite is in the earth's shadow,  

DLR